Вернуться в каталог

FENGYUN 1C DEB

АктивенSSO
NORAD 36668·DEBRIS·🇨🇳 China

Запущен May 10, 1999 с Taiyuan Satellite Launch Center

Loading…

Ближайшие Пролёты (ближайшие 24 часа)

TLE

СвежийSource: Space-Track

Эпоха: Sep 12, 2026, 18:24 UTC

1 36668U 99025DYN 26255.76732407  .00000665  00000-0  35411-3 0  9994
2 36668  98.6076 261.8452 0051963 158.5329 201.8041 14.15993585612951

Отслеживайте FENGYUN 1C DEB в реальном времени с AllMySat

Download on the App Store